Hourly Data Report for February 08, 2003

SHERBROOKE A
QUEBEC

45°26'00.000" N
71°41'00.000" W
241.40 m
7028124
71610
YSC

Download Data

Hourly Data (February 2003)
Hourly Data Report for February 8, 2003
TIME
LST
Temp Definition
°C
Dew Point Definition
°C
Rel Hum Definition
%
Precip. Amount Definition
mm

Wind Dir Definition
10's deg

Wind Spd Definition
km/h
Visibility Definition
km
Stn Press Definition
kPa
Hmdx Definition


Wind Chill Definition


Weather Definition


00:00 -16.3 -20.7 69   23 13 15.0 97.99   -24  
01:00 -16.4 -21.5 65   21 9 15.0 98.00   -22  
02:00 -18.1 -23.1 65   22 9 15.0 98.04   -24  
03:00 -18.5 -23.5 65   23 11 15.0 98.02   -26  
04:00 -18.3 -23.4 64   21 7 15.0 98.04   -24  
05:00 -19.3 -24.6 63   23 4 15.0 98.07   -23  
06:00 -19.1 -24.3 63   21 4 15.0 98.08   -22  
07:00 -19.5 -24.2 66     0 15.0 98.12      
08:00 -17.4 -22.0 67     0 24.1 98.18     Mostly Cloudy
09:00 -13.9 -18.6 68     0 19.3 98.19     Snow
10:00 -10.0 -15.1 66   21 15 24.1 98.16   -17 Snow
11:00 -8.2 -15.0 58   23 20 24.1 98.10   -16 Mostly Cloudy
12:00 -7.8 -15.4 54   24 30 24.1 98.05   -17 Mostly Cloudy
13:00 -6.5 -15.0 51   25 26 24.1 97.99   -14 Mainly Clear
14:00 -5.1 -15.1 45   23 17 24.1 97.94   -11 Mainly Clear
15:00 -4.5 -15.7 41   22 17 24.1 97.92   -10 Clear
16:00 -4.0 -15.5 40   22 13 24.1 97.91   -9 Mainly Clear
17:00 -5.3 -15.4 45   22 7 24.1 97.88   -9 Mainly Clear
18:00 -5.8 -15.2 47   20 9 15.0 97.91   -10  
19:00 -6.2 -14.8 51   21 11 15.0 97.96   -11  
20:00 -7.2 -15.1 53   19 9 15.0 97.96   -12  
21:00 -8.3 -15.6 56   22 7 15.0 97.99   -12  
22:00 -8.0 -15.5 55   18 7 15.0 97.98   -12  
23:00 -7.3 -15.5 52   19 11 15.0 97.98   -12  

Notes on Data Quality.

Legend

  • E = Estimated
  • M = Missing
  • NA = Not Available*
  • [empty] = Indicates an unobserved value
Date modified: